Time,TemperatureF,DewpointF,PressureIn,WindDirection,WindDirectionDegrees,WindSpeedMPH,WindSpeedGustMPH,Humidity,HourlyPrecipIn,Conditions,Clouds,dailyrainin,SoftwareType,DateUTC
2013-08-15 00:03:00,58.1,53.8,30.14,South,185,2.4,5.1,85,0.00,,,0.00,CWS Microserver 1.4,2013-08-15 05:03:00,
2013-08-15 00:08:00,58.1,53.9,30.14,SW,218,3.5,5.1,85,0.00,,,0.00,CWS Microserver 1.4,2013-08-15 05:08:00,
2013-08-15 00:13:00,58.4,54.2,30.14,SW,230,3.0,5.3,85,0.00,,,0.00,CWS Microserver 1.4,2013-08-15 05:13:00,
2013-08-15 00:18:00,59.0,54.7,30.14,SW,235,3.5,5.3,85,0.00,,,0.00,CWS Microserver 1.4,2013-08-15 05:18:00,
2013-08-15 00:23:00,59.5,54.8,30.14,WSW,244,4.5,5.2,84,0.00,,,0.00,CWS Microserver 1.4,2013-08-15 05:23:00,
2013-08-15 00:28:00,60.0,55.0,30.14,SW,235,4.2,5.2,83,0.00,,,0.00,CWS Microserver 1.4,2013-08-15 05:28:00,
2013-08-15 00:33:00,60.6,55.3,30.14,SW,228,3.4,4.9,82,0.00,,,0.00,CWS Microserver 1.4,2013-08-15 05:33:00,
2013-08-15 00:38:00,60.8,55.3,30.14,SW,221,1.9,4.8,82,0.00,,,0.00,CWS Microserver 1.4,2013-08-15 05:38:00,
2013-08-15 00:43:00,60.8,55.2,30.14,WSW,241,3.4,4.6,81,0.00,,,0.00,CWS Microserver 1.4,2013-08-15 05:43:00,
2013-08-15 00:48:00,60.6,55.1,30.14,SW,234,3.4,4.7,82,0.00,,,0.00,CWS Microserver 1.4,2013-08-15 05:48:00,
2013-08-15 00:53:00,60.4,55.1,30.14,SW,235,5.6,6.3,82,0.00,,,0.00,CWS Microserver 1.4,2013-08-15 05:53:00,
2013-08-15 00:58:00,60.6,55.3,30.13,WSW,247,6.5,6.6,82,0.00,,,0.00,CWS Microserver 1.4,2013-08-15 05:58:00,
2013-08-15 01:03:00,60.4,55.2,30.14,SW,222,3.0,6.6,83,0.00,,,0.00,CWS Microserver 1.4,2013-08-15 06:03:00,
2013-08-15 01:08:00,60.2,55.2,30.14,SW,225,1.3,6.6,83,0.00,,,0.00,CWS Microserver 1.4,2013-08-15 06:08:00,
2013-08-15 01:13:00,59.9,55.4,30.14,SW,225,0.3,4.6,85,0.00,,,0.00,CWS Microserver 1.4,2013-08-15 06:13:00,
2013-08-15 01:23:00,59.9,55.4,30.13,WNW,293,1.5,3.3,85,0.00,,,0.00,CWS Microserver 1.4,2013-08-15 06:23:00,
2013-08-15 01:28:00,59.7,55.1,30.13,SSW,211,0.9,3.3,84,0.00,,,0.00,CWS Microserver 1.4,2013-08-15 06:28:00,
2013-08-15 01:33:00,59.7,55.2,30.13,SSW,209,1.6,2.8,85,0.00,,,0.00,CWS Microserver 1.4,2013-08-15 06:33:00,
2013-08-15 01:38:00,59.3,54.9,30.13,SW,228,2.9,4.1,85,0.00,,,0.00,CWS Microserver 1.4,2013-08-15 06:38:00,
2013-08-15 01:43:00,59.1,54.8,30.13,WSW,242,3.6,4.2,85,0.00,,,0.00,CWS Microserver 1.4,2013-08-15 06:43:00,
2013-08-15 01:48:00,59.5,55.0,30.13,WSW,245,2.0,4.4,85,0.00,,,0.00,CWS Microserver 1.4,2013-08-15 06:48:00,
2013-08-15 01:53:00,59.7,54.9,30.13,SW,222,1.0,4.4,84,0.00,,,0.00,CWS Microserver 1.4,2013-08-15 06:53:00,
2013-08-15 01:58:00,59.3,54.6,30.13,South,189,0.6,3.0,84,0.00,,,0.00,CWS Microserver 1.4,2013-08-15 06:58:00,
2013-08-15 02:03:00,59.0,54.6,30.13,SSW,212,2.8,2.8,85,0.00,,,0.00,CWS Microserver 1.4,2013-08-15 07:03:00,
2013-08-15 02:08:00,58.6,54.3,30.13,SW,228,1.3,2.9,85,0.00,,,0.00,CWS Microserver 1.4,2013-08-15 07:08:00,
2013-08-15 02:13:00,58.4,54.3,30.13,SW,235,2.9,3.7,86,0.00,,,0.00,CWS Microserver 1.4,2013-08-15 07:13:00,
2013-08-15 02:18:00,58.4,54.2,30.13,SW,229,2.8,4.2,86,0.00,,,0.00,CWS Microserver 1.4,2013-08-15 07:18:00,
2013-08-15 02:23:00,58.1,53.9,30.13,SSW,213,2.8,4.2,85,0.00,,,0.00,CWS Microserver 1.4,2013-08-15 07:23:00,
2013-08-15 02:28:00,57.5,53.5,30.13,SW,225,2.2,3.6,86,0.00,,,0.00,CWS Microserver 1.4,2013-08-15 07:28:00,
2013-08-15 02:33:00,57.3,53.5,30.13,South,190,1.4,3.3,87,0.00,,,0.00,CWS Microserver 1.4,2013-08-15 07:33:00,
2013-08-15 02:38:00,57.2,53.4,30.12,SSW,208,0.5,3.0,87,0.00,,,0.00,CWS Microserver 1.4,2013-08-15 07:38:00,
2013-08-15 02:43:00,56.8,53.2,30.12,SSE,151,1.4,3.0,87,0.00,,,0.00,CWS Microserver 1.4,2013-08-15 07:43:00,
2013-08-15 02:48:00,56.6,53.3,30.12,SE,142,1.4,2.5,88,0.00,,,0.00,CWS Microserver 1.4,2013-08-15 07:48:00,
2013-08-15 02:53:00,56.4,53.2,30.12,SSW,193,1.7,2.8,88,0.00,,,0.00,CWS Microserver 1.4,2013-08-15 07:53:00,
2013-08-15 02:58:00,56.4,53.3,30.12,SSW,208,2.3,3.4,89,0.00,,,0.00,CWS Microserver 1.4,2013-08-15 07:58:00,
2013-08-15 03:03:00,56.6,53.5,30.12,SSW,204,0.5,3.4,89,0.00,,,0.00,CWS Microserver 1.4,2013-08-15 08:03:00,
2013-08-15 03:08:00,56.6,53.6,30.12,South,184,1.3,2.6,89,0.00,,,0.00,CWS Microserver 1.4,2013-08-15 08:08:00,
2013-08-15 03:13:00,56.8,53.9,30.12,WSW,247,0.5,2.0,90,0.00,,,0.00,CWS Microserver 1.4,2013-08-15 08:13:00,
2013-08-15 03:18:00,56.6,53.7,30.12,South,176,2.2,2.2,90,0.00,,,0.00,CWS Microserver 1.4,2013-08-15 08:18:00,
2013-08-15 03:23:00,56.4,53.5,30.12,SSW,192,2.3,2.7,90,0.00,,,0.00,CWS Microserver 1.4,2013-08-15 08:23:00,
2013-08-15 03:28:00,56.3,53.4,30.12,SSE,166,2.9,3.5,90,0.00,,,0.00,CWS Microserver 1.4,2013-08-15 08:28:00,
2013-08-15 03:33:00,56.1,53.4,30.12,South,172,3.2,3.5,90,0.00,,,0.00,CWS Microserver 1.4,2013-08-15 08:33:00,
2013-08-15 03:38:00,55.5,52.5,30.12,SSE,153,2.9,3.4,89,0.00,,,0.00,CWS Microserver 1.4,2013-08-15 08:38:00,
2013-08-15 03:43:00,55.5,53.0,30.11,South,187,2.5,3.4,91,0.00,,,0.00,CWS Microserver 1.4,2013-08-15 08:43:00,
2013-08-15 03:48:00,55.5,52.9,30.12,SSW,203,2.1,3.2,91,0.00,,,0.00,CWS Microserver 1.4,2013-08-15 08:48:00,
2013-08-15 03:53:00,55.2,52.6,30.12,South,178,3.4,4.4,90,0.00,,,0.00,CWS Microserver 1.4,2013-08-15 08:53:00,
2013-08-15 03:58:00,55.5,53.1,30.12,South,174,3.5,4.8,91,0.00,,,0.00,CWS Microserver 1.4,2013-08-15 08:58:00,
2013-08-15 04:03:00,54.8,52.1,30.12,South,174,3.7,4.8,90,0.00,,,0.00,CWS Microserver 1.4,2013-08-15 09:03:00,
2013-08-15 04:08:00,54.5,51.9,30.12,SSW,194,3.5,4.8,90,0.00,,,0.00,CWS Microserver 1.4,2013-08-15 09:08:00,
2013-08-15 04:13:00,54.1,51.6,30.12,SSW,206,1.9,4.4,91,0.00,,,0.00,CWS Microserver 1.4,2013-08-15 09:13:00,
2013-08-15 04:18:00,54.6,52.3,30.12,SSW,197,1.9,4.1,91,0.00,,,0.00,CWS Microserver 1.4,2013-08-15 09:18:00,
2013-08-15 04:28:00,55.2,52.9,30.12,SSW,206,3.6,4.2,92,0.00,,,0.00,CWS Microserver 1.4,2013-08-15 09:28:00,
2013-08-15 04:33:00,55.5,53.3,30.12,SSW,204,2.8,4.2,92,0.00,,,0.00,CWS Microserver 1.4,2013-08-15 09:33:00,
2013-08-15 04:38:00,55.5,53.3,30.12,SSW,201,1.5,4.2,92,0.00,,,0.00,CWS Microserver 1.4,2013-08-15 09:38:00,
2013-08-15 04:43:00,55.9,53.7,30.12,SSW,206,3.8,4.2,92,0.00,,,0.00,CWS Microserver 1.4,2013-08-15 09:43:00,
2013-08-15 04:48:00,55.7,53.4,30.12,SSW,202,3.9,4.8,92,0.00,,,0.00,CWS Microserver 1.4,2013-08-15 09:48:00,
2013-08-15 04:53:00,55.0,52.6,30.12,SW,215,4.2,5.0,91,0.00,,,0.00,CWS Microserver 1.4,2013-08-15 09:53:00,
2013-08-15 04:58:00,55.4,53.1,30.12,SSW,207,3.6,5.0,92,0.00,,,0.00,CWS Microserver 1.4,2013-08-15 09:58:00,
2013-08-15 05:03:00,55.7,53.5,30.12,SW,219,4.5,4.9,92,0.00,,,0.00,CWS Microserver 1.4,2013-08-15 10:03:00,
2013-08-15 05:08:00,55.4,53.1,30.12,SW,222,3.8,4.7,91,0.00,,,0.00,CWS Microserver 1.4,2013-08-15 10:08:00,
2013-08-15 05:13:00,55.5,53.2,30.12,SW,214,2.3,4.7,92,0.00,,,0.00,CWS Microserver 1.4,2013-08-15 10:13:00,
2013-08-15 05:18:00,55.5,53.2,30.12,SW,214,1.1,4.3,92,0.00,,,0.00,CWS Microserver 1.4,2013-08-15 10:18:00,
2013-08-15 05:23:00,55.5,53.1,30.12,SW,224,0.9,3.4,91,0.00,,,0.00,CWS Microserver 1.4,2013-08-15 10:23:00,
2013-08-15 05:28:00,55.0,52.5,30.12,SW,215,1.4,2.9,91,0.00,,,0.00,CWS Microserver 1.4,2013-08-15 10:28:00,
2013-08-15 05:33:00,55.2,52.8,30.12,SW,217,3.6,3.8,91,0.00,,,0.00,CWS Microserver 1.4,2013-08-15 10:33:00,
2013-08-15 05:38:00,55.2,52.8,30.12,South,187,1.7,3.8,91,0.00,,,0.00,CWS Microserver 1.4,2013-08-15 10:38:00,
2013-08-15 05:43:00,55.0,52.6,30.12,SSW,198,1.9,3.8,91,0.00,,,0.00,CWS Microserver 1.4,2013-08-15 10:43:00,
2013-08-15 05:48:00,55.4,53.0,30.12,SSW,204,0.6,3.3,91,0.00,,,0.00,CWS Microserver 1.4,2013-08-15 10:48:00,
2013-08-15 05:53:00,55.5,53.2,30.12,SSW,208,2.0,3.3,92,0.00,,,0.00,CWS Microserver 1.4,2013-08-15 10:53:00,
2013-08-15 05:58:00,55.2,52.7,30.12,South,181,3.0,3.9,91,0.00,,,0.00,CWS Microserver 1.4,2013-08-15 10:58:00,
2013-08-15 06:03:00,53.9,51.1,30.12,South,177,2.7,4.0,90,0.00,,,0.00,CWS Microserver 1.4,2013-08-15 11:03:00,
2013-08-15 06:08:00,53.4,50.6,30.12,SSW,195,2.1,4.6,90,0.00,,,0.00,CWS Microserver 1.4,2013-08-15 11:08:00,
2013-08-15 06:13:00,53.7,51.3,30.13,SW,233,1.7,4.6,91,0.00,,,0.00,CWS Microserver 1.4,2013-08-15 11:13:00,
2013-08-15 06:18:00,54.1,51.8,30.12,SW,236,0.5,4.4,91,0.00,,,0.00,CWS Microserver 1.4,2013-08-15 11:18:00,
2013-08-15 06:23:00,54.8,52.6,30.12,SSW,198,1.2,3.1,92,0.00,,,0.00,CWS Microserver 1.4,2013-08-15 11:23:00,
2013-08-15 06:28:00,54.5,52.2,30.12,SW,223,2.4,3.1,92,0.00,,,0.00,CWS Microserver 1.4,2013-08-15 11:28:00,
2013-08-15 06:33:00,54.3,52.0,30.12,SW,219,2.1,2.9,91,0.00,,,0.00,CWS Microserver 1.4,2013-08-15 11:33:00,
2013-08-15 06:38:00,53.9,51.5,30.12,SW,221,3.6,3.6,91,0.00,,,0.00,CWS Microserver 1.4,2013-08-15 11:38:00,
2013-08-15 06:43:00,53.6,51.1,30.13,SSW,208,4.1,4.3,91,0.00,,,0.00,CWS Microserver 1.4,2013-08-15 11:43:00,
2013-08-15 06:48:00,53.7,51.3,30.13,SW,229,2.5,5.2,91,0.00,,,0.00,CWS Microserver 1.4,2013-08-15 11:48:00,
2013-08-15 06:53:00,53.9,51.6,30.13,SW,215,2.3,5.2,91,0.00,,,0.00,CWS Microserver 1.4,2013-08-15 11:53:00,
2013-08-15 06:58:00,53.2,50.6,30.13,SW,232,3.2,5.2,91,0.00,,,0.00,CWS Microserver 1.4,2013-08-15 11:58:00,
2013-08-15 07:03:00,52.7,50.2,30.13,SSW,213,3.5,5.2,91,0.00,,,0.00,CWS Microserver 1.4,2013-08-15 12:03:00,
2013-08-15 07:08:00,52.5,50.0,30.13,SW,218,4.2,5.4,91,0.00,,,0.00,CWS Microserver 1.4,2013-08-15 12:08:00,
2013-08-15 07:13:00,52.5,50.1,30.13,SW,218,4.3,5.4,91,0.00,,,0.00,CWS Microserver 1.4,2013-08-15 12:13:00,
2013-08-15 07:18:00,52.5,50.1,30.13,South,189,2.2,4.9,91,0.00,,,0.00,CWS Microserver 1.4,2013-08-15 12:18:00,
2013-08-15 07:23:00,52.8,50.5,30.13,SSW,201,1.9,4.8,92,0.00,,,0.00,CWS Microserver 1.4,2013-08-15 12:23:00,
2013-08-15 07:28:00,53.2,51.0,30.13,SSW,199,1.8,3.8,92,0.00,,,0.00,CWS Microserver 1.4,2013-08-15 12:28:00,
2013-08-15 07:33:00,53.4,51.2,30.13,WSW,242,2.9,3.8,92,0.00,,,0.00,CWS Microserver 1.4,2013-08-15 12:33:00,
2013-08-15 07:38:00,53.6,51.4,30.14,WSW,246,2.0,4.1,92,0.00,,,0.00,CWS Microserver 1.4,2013-08-15 12:38:00,
2013-08-15 07:43:00,54.1,51.9,30.14,SW,234,2.6,4.1,92,0.00,,,0.00,CWS Microserver 1.4,2013-08-15 12:43:00,
2013-08-15 07:48:00,54.6,52.4,30.14,SW,221,2.5,4.2,92,0.00,,,0.00,CWS Microserver 1.4,2013-08-15 12:48:00,
2013-08-15 07:53:00,55.2,53.0,30.14,SW,223,1.8,4.2,92,0.00,,,0.00,CWS Microserver 1.4,2013-08-15 12:53:00,
2013-08-15 07:58:00,55.5,53.3,30.14,SSW,212,4.6,5.7,92,0.00,,,0.00,CWS Microserver 1.4,2013-08-15 12:58:00,
2013-08-15 08:03:00,55.7,53.4,30.14,SW,222,3.3,6.9,92,0.00,,,0.00,CWS Microserver 1.4,2013-08-15 13:03:00,
2013-08-15 08:08:00,56.1,53.7,30.14,WSW,241,3.2,6.9,91,0.00,,,0.00,CWS Microserver 1.4,2013-08-15 13:08:00,
2013-08-15 08:13:00,56.8,54.3,30.14,SW,216,1.9,4.6,91,0.00,,,0.00,CWS Microserver 1.4,2013-08-15 13:13:00,
2013-08-15 08:18:00,57.5,54.5,30.14,SSW,211,0.7,4.4,89,0.00,,,0.00,CWS Microserver 1.4,2013-08-15 13:18:00,
2013-08-15 08:23:00,58.4,54.9,30.14,WSW,244,2.0,4.1,88,0.00,,,0.00,CWS Microserver 1.4,2013-08-15 13:23:00,
2013-08-15 08:28:00,59.1,55.0,30.14,SSW,209,2.0,4.1,86,0.00,,,0.00,CWS Microserver 1.4,2013-08-15 13:28:00,
2013-08-15 08:33:00,60.0,54.9,30.15,SW,235,0.7,3.6,83,0.00,,,0.00,CWS Microserver 1.4,2013-08-15 13:33:00,
2013-08-15 08:38:00,60.9,55.1,30.14,West,277,2.8,4.2,81,0.00,,,0.00,CWS Microserver 1.4,2013-08-15 13:38:00,
2013-08-15 08:43:00,61.5,55.0,30.15,West,270,2.9,5.6,79,0.00,,,0.00,CWS Microserver 1.4,2013-08-15 13:43:00,
2013-08-15 08:48:00,61.7,55.1,30.14,WSW,239,1.9,5.6,78,0.00,,,0.00,CWS Microserver 1.4,2013-08-15 13:48:00,
2013-08-15 08:53:00,61.8,55.0,30.14,West,269,3.7,5.6,78,0.00,,,0.00,CWS Microserver 1.4,2013-08-15 13:53:00,
2013-08-15 08:58:00,62.0,54.7,30.14,SW,235,5.2,5.8,76,0.00,,,0.00,CWS Microserver 1.4,2013-08-15 13:58:00,
2013-08-15 09:03:00,62.2,54.7,30.14,West,280,2.5,6.6,76,0.00,,,0.00,CWS Microserver 1.4,2013-08-15 14:03:00,
2013-08-15 09:08:00,62.2,53.9,30.15,SW,233,5.2,6.7,74,0.00,,,0.00,CWS Microserver 1.4,2013-08-15 14:08:00,
2013-08-15 09:13:00,62.4,54.1,30.14,SW,225,4.4,6.7,74,0.00,,,0.00,CWS Microserver 1.4,2013-08-15 14:13:00,
2013-08-15 09:18:00,62.4,53.9,30.14,SW,233,3.9,5.8,73,0.00,,,0.00,CWS Microserver 1.4,2013-08-15 14:18:00,
2013-08-15 09:23:00,62.6,53.6,30.14,WSW,253,3.9,5.3,72,0.00,,,0.00,CWS Microserver 1.4,2013-08-15 14:23:00,
2013-08-15 09:28:00,62.6,53.8,30.14,SW,226,4.1,6.5,73,0.00,,,0.00,CWS Microserver 1.4,2013-08-15 14:28:00,
2013-08-15 09:33:00,62.6,53.9,30.15,West,263,4.0,6.5,73,0.00,,,0.00,CWS Microserver 1.4,2013-08-15 14:33:00,
2013-08-15 09:38:00,62.6,54.1,30.15,WNW,291,1.7,5.8,73,0.00,,,0.00,CWS Microserver 1.4,2013-08-15 14:38:00,
2013-08-15 09:53:00,62.7,54.2,30.15,SW,225,2.4,4.6,73,0.00,,,0.00,CWS Microserver 1.4,2013-08-15 14:53:00,
2013-08-15 10:03:00,63.8,54.1,30.15,WSW,245,2.9,4.7,70,0.00,,,0.00,CWS Microserver 1.4,2013-08-15 15:03:00,
2013-08-15 10:08:00,64.0,54.0,30.15,South,184,1.1,4.8,69,0.00,,,0.00,CWS Microserver 1.4,2013-08-15 15:08:00,
2013-08-15 10:13:00,64.2,53.5,30.15,South,185,3.6,4.8,68,0.00,,,0.00,CWS Microserver 1.4,2013-08-15 15:13:00,
2013-08-15 10:23:00,64.7,53.6,30.15,SW,227,4.1,4.6,67,0.00,,,0.00,CWS Microserver 1.4,2013-08-15 15:23:00,
2013-08-15 10:28:00,65.3,53.9,30.15,SW,224,2.7,4.7,66,0.00,,,0.00,CWS Microserver 1.4,2013-08-15 15:28:00,
2013-08-15 10:33:00,65.6,53.9,30.15,SE,136,3.2,6.7,66,0.00,,,0.00,CWS Microserver 1.4,2013-08-15 15:33:00,
2013-08-15 10:38:00,66.0,53.7,30.15,SSE,157,6.7,6.9,64,0.00,,,0.00,CWS Microserver 1.4,2013-08-15 15:38:00,
2013-08-15 10:43:00,65.8,53.1,30.15,SSE,158,5.8,9.0,63,0.00,,,0.00,CWS Microserver 1.4,2013-08-15 15:43:00,
2013-08-15 10:48:00,66.2,53.1,30.15,SSE,150,1.4,9.0,62,0.00,,,0.00,CWS Microserver 1.4,2013-08-15 15:48:00,
2013-08-15 10:53:00,66.9,52.8,30.14,SSE,150,5.7,8.8,60,0.00,,,0.00,CWS Microserver 1.4,2013-08-15 15:53:00,
2013-08-15 10:58:00,66.7,51.8,30.14,ESE,113,3.6,8.8,58,0.00,,,0.00,CWS Microserver 1.4,2013-08-15 15:58:00,
2013-08-15 11:03:00,67.6,50.9,30.14,SE,135,3.9,8.0,55,0.00,,,0.00,CWS Microserver 1.4,2013-08-15 16:03:00,
2013-08-15 11:13:00,67.4,51.9,30.14,SSE,154,3.9,8.0,57,0.00,,,0.00,CWS Microserver 1.4,2013-08-15 16:13:00,
2013-08-15 11:18:00,67.1,52.3,30.14,South,183,8.0,9.1,59,0.00,,,0.00,CWS Microserver 1.4,2013-08-15 16:18:00,
2013-08-15 11:23:00,67.8,52.0,30.14,SE,124,3.1,9.1,57,0.00,,,0.00,CWS Microserver 1.4,2013-08-15 16:23:00,
2013-08-15 11:28:00,68.1,53.0,30.14,SE,142,5.9,9.1,58,0.00,,,0.00,CWS Microserver 1.4,2013-08-15 16:28:00,
2013-08-15 11:38:00,68.0,51.3,30.14,SSE,158,6.2,9.5,55,0.00,,,0.00,CWS Microserver 1.4,2013-08-15 16:38:00,
2013-08-15 11:48:00,68.3,51.9,30.13,SSE,153,5.1,10.2,55,0.00,,,0.00,CWS Microserver 1.4,2013-08-15 16:48:00,
2013-08-15 11:53:00,68.9,51.8,30.13,South,171,8.9,10.5,54,0.00,,,0.00,CWS Microserver 1.4,2013-08-15 16:53:00,
2013-08-15 11:58:00,68.3,51.4,30.13,SSE,165,6.1,10.7,54,0.00,,,0.00,CWS Microserver 1.4,2013-08-15 16:58:00,
2013-08-15 12:03:00,68.3,52.0,30.13,South,186,4.8,10.7,56,0.00,,,0.00,CWS Microserver 1.4,2013-08-15 17:03:00,
2013-08-15 12:08:00,68.7,52.3,30.13,SSE,149,9.0,10.4,56,0.00,,,0.00,CWS Microserver 1.4,2013-08-15 17:08:00,
2013-08-15 12:13:00,68.9,51.9,30.13,SSE,166,2.9,9.3,54,0.00,,,0.00,CWS Microserver 1.4,2013-08-15 17:13:00,
2013-08-15 12:18:00,69.4,51.5,30.13,South,181,5.7,11.9,53,0.00,,,0.00,CWS Microserver 1.4,2013-08-15 17:18:00,
2013-08-15 12:23:00,69.4,52.0,30.13,SSE,155,9.0,11.9,54,0.00,,,0.00,CWS Microserver 1.4,2013-08-15 17:23:00,
2013-08-15 12:28:00,69.8,51.1,30.13,SSW,196,4.5,10.1,51,0.00,,,0.00,CWS Microserver 1.4,2013-08-15 17:28:00,
2013-08-15 12:38:00,69.9,51.8,30.13,South,182,5.1,12.1,52,0.00,,,0.00,CWS Microserver 1.4,2013-08-15 17:38:00,
2013-08-15 12:58:00,70.5,50.8,30.13,South,178,2.9,11.4,49,0.00,,,0.00,CWS Microserver 1.4,2013-08-15 17:58:00,
2013-08-15 13:03:00,70.3,50.1,30.12,SSW,194,11.7,15.2,48,0.00,,,0.00,CWS Microserver 1.4,2013-08-15 18:03:00,
2013-08-15 13:08:00,69.6,49.6,30.12,SSE,165,3.5,15.2,49,0.00,,,0.00,CWS Microserver 1.4,2013-08-15 18:08:00,
2013-08-15 13:18:00,70.3,51.1,30.12,SE,141,7.0,11.1,50,0.00,,,0.00,CWS Microserver 1.4,2013-08-15 18:18:00,
2013-08-15 13:23:00,70.5,52.1,30.12,SSE,162,6.8,11.1,52,0.00,,,0.00,CWS Microserver 1.4,2013-08-15 18:23:00,
2013-08-15 13:28:00,70.5,49.9,30.12,SE,133,6.4,12.9,48,0.00,,,0.00,CWS Microserver 1.4,2013-08-15 18:28:00,
2013-08-15 13:38:00,70.8,51.6,30.12,SE,130,7.8,11.9,50,0.00,,,0.00,CWS Microserver 1.4,2013-08-15 18:38:00,
2013-08-15 13:43:00,71.0,51.3,30.12,ESE,122,2.7,12.9,49,0.00,,,0.00,CWS Microserver 1.4,2013-08-15 18:43:00,
2013-08-15 13:58:00,70.7,51.1,30.12,SE,142,5.6,14.8,50,0.00,,,0.00,CWS Microserver 1.4,2013-08-15 18:58:00,
2013-08-15 14:03:00,71.0,52.3,30.12,South,176,5.7,15.4,51,0.00,,,0.00,CWS Microserver 1.4,2013-08-15 19:03:00,
2013-08-15 14:08:00,71.0,51.5,30.12,South,174,7.2,15.4,50,0.00,,,0.00,CWS Microserver 1.4,2013-08-15 19:08:00,
2013-08-15 14:18:00,71.0,51.0,30.11,SSE,162,11.5,12.9,49,0.00,,,0.00,CWS Microserver 1.4,2013-08-15 19:18:00,
2013-08-15 14:23:00,70.5,50.3,30.11,SSE,147,7.0,15.6,48,0.00,,,0.00,CWS Microserver 1.4,2013-08-15 19:23:00,
2013-08-15 14:33:00,70.8,50.3,30.11,SSE,167,9.6,13.2,48,0.00,,,0.00,CWS Microserver 1.4,2013-08-15 19:33:00,
2013-08-15 14:38:00,70.7,52.3,30.11,SSE,161,6.8,13.2,52,0.00,,,0.00,CWS Microserver 1.4,2013-08-15 19:38:00,
2013-08-15 14:48:00,71.4,51.0,30.11,SSE,151,11.5,13.6,48,0.00,,,0.00,CWS Microserver 1.4,2013-08-15 19:48:00,
2013-08-15 14:53:00,71.4,50.5,30.12,SE,143,6.7,13.6,47,0.00,,,0.00,CWS Microserver 1.4,2013-08-15 19:53:00,
2013-08-15 15:03:00,71.7,52.7,30.11,SSE,148,8.0,13.1,51,0.00,,,0.00,CWS Microserver 1.4,2013-08-15 20:03:00,
2013-08-15 15:08:00,71.6,50.8,30.11,SSE,149,3.7,10.8,48,0.00,,,0.00,CWS Microserver 1.4,2013-08-15 20:08:00,
2013-08-15 15:13:00,72.1,52.3,30.11,SE,138,8.7,12.9,49,0.00,,,0.00,CWS Microserver 1.4,2013-08-15 20:13:00,
2013-08-15 15:23:00,72.3,51.6,30.11,SE,124,8.1,11.6,48,0.00,,,0.00,CWS Microserver 1.4,2013-08-15 20:23:00,
2013-08-15 15:33:00,71.7,51.0,30.11,SSE,157,7.8,13.1,48,0.00,,,0.00,CWS Microserver 1.4,2013-08-15 20:33:00,
2013-08-15 15:38:00,71.6,50.6,30.11,SSE,148,6.8,13.1,47,0.00,,,0.00,CWS Microserver 1.4,2013-08-15 20:38:00,
2013-08-15 15:43:00,71.9,51.0,30.11,South,177,8.0,10.1,47,0.00,,,0.00,CWS Microserver 1.4,2013-08-15 20:43:00,
2013-08-15 15:53:00,71.9,52.0,30.10,SSE,165,6.2,11.4,49,0.00,,,0.00,CWS Microserver 1.4,2013-08-15 20:53:00,
2013-08-15 15:58:00,72.5,50.8,30.10,SSE,162,4.0,11.7,46,0.00,,,0.00,CWS Microserver 1.4,2013-08-15 20:58:00,
2013-08-15 16:03:00,72.1,51.7,30.10,South,185,7.3,11.7,48,0.00,,,0.00,CWS Microserver 1.4,2013-08-15 21:03:00,
2013-08-15 16:13:00,71.9,53.1,30.10,South,174,5.8,12.1,51,0.00,,,0.00,CWS Microserver 1.4,2013-08-15 21:13:00,
2013-08-15 16:23:00,72.5,52.4,30.10,SSW,210,6.5,10.7,49,0.00,,,0.00,CWS Microserver 1.4,2013-08-15 21:23:00,
2013-08-15 16:33:00,71.7,52.4,30.10,South,176,8.1,10.7,50,0.00,,,0.00,CWS Microserver 1.4,2013-08-15 21:33:00,
2013-08-15 16:38:00,71.0,54.0,30.10,SSW,195,7.9,13.8,55,0.00,,,0.00,CWS Microserver 1.4,2013-08-15 21:38:00,
2013-08-15 16:48:00,70.5,53.8,30.11,South,185,8.6,11.9,55,0.00,,,0.00,CWS Microserver 1.4,2013-08-15 21:48:00,
2013-08-15 16:58:00,70.1,53.8,30.11,SW,220,8.9,12.2,56,0.00,,,0.00,CWS Microserver 1.4,2013-08-15 21:58:00,
2013-08-15 17:08:00,71.0,53.7,30.11,SW,233,6.9,9.9,54,0.00,,,0.00,CWS Microserver 1.4,2013-08-15 22:08:00,
2013-08-15 17:13:00,70.5,53.3,30.11,SW,221,5.9,10.5,54,0.00,,,0.00,CWS Microserver 1.4,2013-08-15 22:13:00,
2013-08-15 17:18:00,70.3,53.8,30.11,WSW,245,4.6,10.5,56,0.00,,,0.00,CWS Microserver 1.4,2013-08-15 22:18:00,
2013-08-15 17:23:00,70.3,53.4,30.11,SW,219,7.5,9.0,55,0.00,,,0.00,CWS Microserver 1.4,2013-08-15 22:23:00,
2013-08-15 17:28:00,70.3,53.9,30.11,SW,222,5.8,8.9,56,0.00,,,0.00,CWS Microserver 1.4,2013-08-15 22:28:00,
2013-08-15 17:33:00,70.5,54.2,30.11,SSW,194,5.2,8.8,56,0.00,,,0.00,CWS Microserver 1.4,2013-08-15 22:33:00,
2013-08-15 17:38:00,70.3,54.3,30.11,SSW,200,5.9,9.1,57,0.00,,,0.00,CWS Microserver 1.4,2013-08-15 22:38:00,
2013-08-15 17:43:00,70.7,53.9,30.11,South,191,5.3,9.1,55,0.00,,,0.00,CWS Microserver 1.4,2013-08-15 22:43:00,
2013-08-15 17:48:00,70.3,53.4,30.11,SSW,210,3.1,8.7,55,0.00,,,0.00,CWS Microserver 1.4,2013-08-15 22:48:00,
2013-08-15 17:53:00,70.8,54.3,30.11,SW,215,6.7,8.7,56,0.00,,,0.00,CWS Microserver 1.4,2013-08-15 22:53:00,
2013-08-15 17:58:00,70.5,53.6,30.11,SW,221,2.6,10.2,55,0.00,,,0.00,CWS Microserver 1.4,2013-08-15 22:58:00,
2013-08-15 18:03:00,70.3,53.0,30.11,SW,221,4.6,10.4,54,0.00,,,0.00,CWS Microserver 1.4,2013-08-15 23:03:00,
2013-08-15 18:13:00,70.8,53.8,30.11,SSW,212,2.9,7.5,55,0.00,,,0.00,CWS Microserver 1.4,2013-08-15 23:13:00,
2013-08-15 18:18:00,71.0,53.4,30.11,SSW,211,4.3,7.5,53,0.00,,,0.00,CWS Microserver 1.4,2013-08-15 23:18:00,
2013-08-15 18:23:00,71.2,54.6,30.11,SW,220,4.0,5.7,55,0.00,,,0.00,CWS Microserver 1.4,2013-08-15 23:23:00,
2013-08-15 18:28:00,71.0,54.2,30.11,SW,219,4.6,5.8,55,0.00,,,0.00,CWS Microserver 1.4,2013-08-15 23:28:00,
2013-08-15 18:33:00,71.0,54.2,30.11,WSW,257,4.7,5.8,55,0.00,,,0.00,CWS Microserver 1.4,2013-08-15 23:33:00,
2013-08-15 18:38:00,70.5,53.2,30.11,SW,215,5.3,7.8,54,0.00,,,0.00,CWS Microserver 1.4,2013-08-15 23:38:00,
2013-08-15 18:48:00,70.1,54.6,30.11,SW,232,7.4,7.6,58,0.00,,,0.00,CWS Microserver 1.4,2013-08-15 23:48:00,
2013-08-15 18:53:00,69.9,53.9,30.11,WSW,238,4.5,7.7,57,0.00,,,0.00,CWS Microserver 1.4,2013-08-15 23:53:00,
2013-08-15 18:58:00,69.6,53.3,30.11,SW,234,6.1,8.2,56,0.00,,,0.00,CWS Microserver 1.4,2013-08-15 23:58:00,
2013-08-15 19:08:00,69.6,54.4,30.11,SW,226,5.1,7.8,58,0.00,,,0.00,CWS Microserver 1.4,2013-08-16 00:08:00,
2013-08-15 19:13:00,69.6,55.0,30.11,SW,214,1.7,6.3,59,0.00,,,0.00,CWS Microserver 1.4,2013-08-16 00:13:00,
2013-08-15 19:18:00,69.6,53.9,30.11,SW,215,4.5,6.3,57,0.00,,,0.00,CWS Microserver 1.4,2013-08-16 00:18:00,
2013-08-15 19:23:00,69.4,54.9,30.11,SW,224,3.1,6.2,60,0.00,,,0.00,CWS Microserver 1.4,2013-08-16 00:23:00,
2013-08-15 19:28:00,69.2,54.7,30.11,SSW,208,2.9,6.2,60,0.00,,,0.00,CWS Microserver 1.4,2013-08-16 00:28:00,
2013-08-15 19:33:00,69.0,54.5,30.11,SW,230,3.0,5.2,60,0.00,,,0.00,CWS Microserver 1.4,2013-08-16 00:33:00,
2013-08-15 19:38:00,68.9,54.8,30.11,SSW,211,4.1,4.9,60,0.00,,,0.00,CWS Microserver 1.4,2013-08-16 00:38:00,
2013-08-15 19:43:00,68.7,55.3,30.11,SW,223,2.4,4.6,62,0.00,,,0.00,CWS Microserver 1.4,2013-08-16 00:43:00,
2013-08-15 19:48:00,68.3,55.7,30.11,South,188,2.6,4.6,64,0.00,,,0.00,CWS Microserver 1.4,2013-08-16 00:48:00,
2013-08-15 19:53:00,68.0,55.2,30.11,SW,220,3.2,4.1,63,0.00,,,0.00,CWS Microserver 1.4,2013-08-16 00:53:00,
2013-08-15 19:58:00,68.0,55.4,30.11,SSW,209,1.8,4.1,64,0.00,,,0.00,CWS Microserver 1.4,2013-08-16 00:58:00,
2013-08-15 20:08:00,67.8,54.3,30.11,SW,216,2.4,3.6,62,0.00,,,0.00,CWS Microserver 1.4,2013-08-16 01:08:00,
2013-08-15 20:13:00,67.6,54.6,30.11,SSW,200,0.7,2.9,63,0.00,,,0.00,CWS Microserver 1.4,2013-08-16 01:13:00,
2013-08-15 20:23:00,66.9,56.5,30.11,NE,43,1.6,2.6,69,0.00,,,0.00,CWS Microserver 1.4,2013-08-16 01:23:00,
2013-08-15 20:43:00,65.8,55.7,30.12,NW,315,2.1,2.7,69,0.00,,,0.00,CWS Microserver 1.4,2013-08-16 01:43:00,
2013-08-15 20:48:00,65.4,56.8,30.12,NW,307,2.3,2.7,73,0.00,,,0.00,CWS Microserver 1.4,2013-08-16 01:48:00,
2013-08-15 20:53:00,65.1,56.2,30.12,WNW,286,2.3,2.7,72,0.00,,,0.00,CWS Microserver 1.4,2013-08-16 01:53:00,
2013-08-15 20:58:00,65.1,55.6,30.12,West,279,2.6,2.7,71,0.00,,,0.00,CWS Microserver 1.4,2013-08-16 01:58:00,
2013-08-15 21:03:00,65.3,55.1,30.13,WNW,284,2.2,2.8,69,0.00,,,0.00,CWS Microserver 1.4,2013-08-16 02:03:00,
2013-08-15 21:08:00,65.4,56.0,30.13,SSE,152,0.6,2.8,71,0.00,,,0.00,CWS Microserver 1.4,2013-08-16 02:08:00,
2013-08-15 21:13:00,65.8,54.3,30.13,SW,226,2.1,3.8,66,0.00,,,0.00,CWS Microserver 1.4,2013-08-16 02:13:00,
2013-08-15 21:18:00,65.8,55.1,30.13,SW,219,3.5,5.0,68,0.00,,,0.00,CWS Microserver 1.4,2013-08-16 02:18:00,
2013-08-15 21:23:00,65.6,54.9,30.13,SW,221,2.7,5.2,68,0.00,,,0.00,CWS Microserver 1.4,2013-08-16 02:23:00,
2013-08-15 21:28:00,65.3,55.2,30.13,SSW,211,3.1,5.2,70,0.00,,,0.00,CWS Microserver 1.4,2013-08-16 02:28:00,
2013-08-15 21:33:00,64.9,55.4,30.14,SSW,199,4.2,5.0,71,0.00,,,0.00,CWS Microserver 1.4,2013-08-16 02:33:00,
2013-08-15 21:43:00,64.2,55.5,30.14,SSW,211,4.0,5.0,73,0.00,,,0.00,CWS Microserver 1.4,2013-08-16 02:43:00,
2013-08-15 21:53:00,62.9,55.2,30.15,SW,215,5.3,7.0,75,0.00,,,0.00,CWS Microserver 1.4,2013-08-16 02:53:00,
2013-08-15 21:58:00,62.6,55.2,30.15,SW,226,3.9,7.0,76,0.00,,,0.00,CWS Microserver 1.4,2013-08-16 02:58:00,
2013-08-15 22:03:00,62.2,55.1,30.15,SSW,201,2.6,6.1,77,0.00,,,0.00,CWS Microserver 1.4,2013-08-16 03:03:00,
2013-08-15 22:08:00,61.7,55.0,30.15,SW,224,4.4,5.8,78,0.00,,,0.00,CWS Microserver 1.4,2013-08-16 03:08:00,
2013-08-15 22:13:00,61.3,54.9,30.15,SW,221,2.1,7.3,79,0.00,,,0.00,CWS Microserver 1.4,2013-08-16 03:13:00,
2013-08-15 22:18:00,61.1,54.8,30.15,SSW,201,2.4,8.2,79,0.00,,,0.00,CWS Microserver 1.4,2013-08-16 03:18:00,
2013-08-15 22:23:00,60.6,54.8,30.16,SW,214,1.7,8.2,81,0.00,,,0.00,CWS Microserver 1.4,2013-08-16 03:23:00,
2013-08-15 22:28:00,60.6,54.8,30.16,SW,221,6.3,7.9,81,0.00,,,0.00,CWS Microserver 1.4,2013-08-16 03:28:00,
2013-08-15 22:33:00,60.4,54.6,30.16,South,188,3.6,7.9,81,0.00,,,0.00,CWS Microserver 1.4,2013-08-16 03:33:00,
2013-08-15 22:38:00,60.2,54.5,30.16,SSW,208,3.1,7.6,81,0.00,,,0.00,CWS Microserver 1.4,2013-08-16 03:38:00,
2013-08-15 22:43:00,60.6,54.4,30.16,SW,234,7.0,8.4,80,0.00,,,0.00,CWS Microserver 1.4,2013-08-16 03:43:00,
2013-08-15 22:48:00,60.8,54.5,30.16,SSW,211,6.9,8.7,79,0.00,,,0.00,CWS Microserver 1.4,2013-08-16 03:48:00,
2013-08-15 22:53:00,60.9,54.5,30.16,WSW,244,7.5,8.9,79,0.00,,,0.00,CWS Microserver 1.4,2013-08-16 03:53:00,
2013-08-15 22:58:00,61.1,54.6,30.16,SW,225,6.6,9.2,79,0.00,,,0.00,CWS Microserver 1.4,2013-08-16 03:58:00,
2013-08-15 23:03:00,60.9,54.6,30.16,SW,221,6.2,9.2,79,0.00,,,0.00,CWS Microserver 1.4,2013-08-16 04:03:00,
2013-08-15 23:08:00,60.6,54.6,30.16,SW,224,2.8,8.7,80,0.00,,,0.00,CWS Microserver 1.4,2013-08-16 04:08:00,
2013-08-15 23:13:00,60.6,54.9,30.16,WSW,244,2.9,7.0,81,0.00,,,0.00,CWS Microserver 1.4,2013-08-16 04:13:00,
2013-08-15 23:18:00,60.6,54.9,30.17,SW,233,4.3,5.7,81,0.00,,,0.00,CWS Microserver 1.4,2013-08-16 04:18:00,
2013-08-15 23:23:00,60.2,54.7,30.17,SW,233,4.3,5.5,82,0.00,,,0.00,CWS Microserver 1.4,2013-08-16 04:23:00,
2013-08-15 23:28:00,60.0,54.6,30.17,WSW,245,2.7,5.3,82,0.00,,,0.00,CWS Microserver 1.4,2013-08-16 04:28:00,
2013-08-15 23:33:00,60.0,54.7,30.17,WSW,246,5.6,6.9,82,0.00,,,0.00,CWS Microserver 1.4,2013-08-16 04:33:00,
2013-08-15 23:38:00,59.9,54.7,30.17,WSW,243,2.4,6.9,83,0.00,,,0.00,CWS Microserver 1.4,2013-08-16 04:38:00,
2013-08-15 23:43:00,59.7,54.7,30.17,WSW,241,5.2,7.0,83,0.00,,,0.00,CWS Microserver 1.4,2013-08-16 04:43:00,
2013-08-15 23:48:00,59.5,54.6,30.17,SW,235,2.0,7.0,83,0.00,,,0.00,CWS Microserver 1.4,2013-08-16 04:48:00,
2013-08-15 23:53:00,59.5,54.6,30.17,SW,233,4.7,6.3,84,0.00,,,0.00,CWS Microserver 1.4,2013-08-16 04:53:00,
2013-08-15 23:58:00,59.3,54.7,30.16,SW,216,3.4,6.0,84,0.00,,,0.00,CWS Microserver 1.4,2013-08-16 04:58:00,